POLAR SCOUT YUKON (43808 NORAD) Tracking and Keplerian Element Data

This shows tracking and keplerian element data for the satellite.

Feedback or suggestion? Click here.




ElementValue
Catalog43808
NamePOLAR SCOUT YUKON
Epoch Orbit400
Epoch Day1.5935345
Epoch Year2019
RAAN75.4848
Inclination97.7649
Eccentricity0.0012789
Argument of Perigee169.8867
Mean Anonmoly190.2613
Mean Motion14.95280406
Decay Rate2.53E-06
L11 43808U 18099BC 19001.59353450 .00000253 00000-0 28182-4 0 9990
L22 43808 97.7649 75.4848 0012789 169.8867 190.2613 14.95280406 4000

Live tracking and technical data element details for POLAR SCOUT YUKON (NORAD 43808). POLAR SCOUT YUKON can be tracked NOW for your location showing map with azimuth and elevation plus other details from your city location.

Track the satellite on the map from your city or location and see movement details for azimuth, elevation, latitude, longitude, range, height, and movement on the map or in text.







IsCatalogInMostPopularTable: catalog: 43808, numindb: 80
Update: records affected: 1



GetName: 43808 POLAR SCOUT YUKON

Hit Count: updated at: Sun, 21 Jul 2019 14:44:29 GMT